TIME,DELAY(SENSOR),PRES,OXYGEN,RAWTEMP,T(OPTODE),TCPHASE,FLUOR,BETA(BETA700),BETA(BETA412),BETA(BETA440),CDOM,C(CSC),ED(ED412.20),ED(ED444.00),ED(ED489.60),ED(ED554.30),LU(LU412.10),LU(LU443.90),LU(LU489.70),LU(LU554.70),COMP,TILTX,TILTY,CHECK
1349060770,5808,899.9199829101562000,34.8656082153320300,558.4841918945312000,4.5328640937805180,56.2898597717285160,55,101,100,79,83,15560,0,0,0,0,2147124096,2147770770,2147576841,2147572608,316,3,13,54457
1349064366,5809,967.5599975585938000,38.9884109497070300,563.6113891601562000,4.3739190101623535,55.7020111083984400,55,102,101,80,82,15559,0,0,0,0,2147127030,2147773430,2147572955,2147572333,405,3,13,29972
1349067966,5811,979.8599853515625000,39.1476593017578100,564.3801269531250000,4.3500709533691410,55.6865196228027340,55,97,101,80,83,15559,0,0,0,0,2147123465,2147775652,2147571785,2147570386,89,3,13,14509
1349071566,5810,975.9000244140625000,39.3984184265136700,564.7808837890625000,4.3376312255859375,55.6498908996582000,55,101,100,77,81,15559,0,0,0,0,2147122523,2147773120,2147568676,2147567680,976,3,13,14845
1349075166,5812,982.7500000000000000,39.9321517944335940,565.3145751953125000,4.3210701942443850,55.5763282775878900,56,99,101,78,81,15557,0,0,0,0,2147122907,2147774226,2147570102,2147573915,189,3,13,23056
1349078766,5807,990.8499755859375000,39.4957809448242200,564.9586181640625000,4.3321170806884770,55.6375389099121100,56,98,99,78,83,15558,0,0,0,0,2147125010,2147774226,2147572434,2147570624,350,3,13,14129
1349082366,5806,988.9000244140625000,39.8425216674804700,565.3253784179688000,4.3207340240478520,55.5881195068359400,55,98,103,78,83,15554,0,0,0,0,2147126948,2147770313,2147576283,2147570944,393,3,13,14567
1349085966,5814,988.0700073242188000,39.7780990600585940,565.7894897460938000,4.3063302040100100,55.6052894592285160,55,99,101,77,83,15555,0,0,0,0,2147124187,2147779072,2147572480,2147570550,23,3,13,40011
1349089566,5812,991.4600219726562000,39.4150009155273440,565.9904785156250000,4.3000907897949220,55.6572990417480500,54,97,100,78,82,15554,0,0,0,0,2147125842,2147774720,2147571382,2147569005,65,3,13,58552
1349093166,5809,990.6099853515625000,39.2813491821289060,566.8887939453125000,4.2722020149230960,55.6907691955566400,55,100,101,77,83,15550,0,0,0,0,2147125732,2147778139,2147571099,2147569654,181,3,13,51553
1349096766,5808,990.0200195312500000,39.6398200988769500,567.3220825195312000,4.2587471008300780,55.6382713317871100,56,100,101,77,82,15552,0,0,0,0,2147121581,2147777600,2147572141,2147569755,3540,3,13,50112
1349100366,5812,992.4600219726562000,39.5116996765136700,567.6530151367188000,4.2484741210937500,55.6615905761718750,54,98,101,77,82,15552,0,0,0,0,2147125056,2147773741,2147574985,2147568402,95,3,13,28772
1349103966,5809,991.4699707031250000,39.8885383605957000,567.7626953125000000,4.2450661659240720,55.6103782653808600,55,98,100,79,83,15549,0,0,0,0,2147126829,2147777444,2147572032,2147570697,402,3,13,19740
1349107566,5807,989.7600097656250000,39.9589691162109400,568.0164184570312000,4.2371859550476070,55.5966300964355500,56,101,101,78,82,15551,0,0,0,0,2147125540,2147778916,2147568749,2147566957,159,3,13,10342
1349111166,5808,991.9299926757812000,40.1493110656738300,567.7697753906250000,4.2448439598083500,55.5727882385253900,54,97,101,77,81,15551,0,0,0,0,2147124772,2147774957,2147572123,2147571538,149,3,13,32789
1349114766,5810,995.9500122070312000,39.7143592834472660,567.6229858398438000,4.2494029998779300,55.6283607482910160,55,98,101,77,82,15551,0,0,0,0,2147120658,2147770194,2147575780,2147569078,197,3,13,64725
1349118366,5810,996.6699829101562000,39.2057418823242200,567.3983154296875000,4.2563838958740230,55.7047691345214840,55,98,101,77,83,15549,0,0,0,0,2147124480,2147773065,2147569929,2147566025,132,3,13,39086
1349121966,5808,998.6599731445312000,39.0428199768066400,566.8411865234375000,4.2736802101135250,55.7272987365722660,55,101,100,78,82,15545,0,0,0,0,2147122633,2147773860,2147572973,2147570660,255,3,13,62612
1349125566,5809,1000.2500000000000000,38.3978805541992200,566.9833984375000000,4.2692642211914060,55.8276100158691400,55,98,99,79,82,15548,0,0,0,0,2147122038,2147774153,2147574043,2147568521,94,3,13,22892
1349129166,5808,999.0000000000000000,38.4518890380859400,566.4544067382812000,4.2856879234313965,55.8115196228027340,55,99,101,77,83,15546,0,0,0,0,2147123830,2147774171,2147572022,2147569179,440,3,13,59770
1349132766,5809,995.0200195312500000,38.2087516784668000,567.1765747070312000,4.2632660865783690,55.8517189025878900,54,99,100,78,82,15548,0,0,0,0,2147124662,2147774683,2147572406,2147567634,363,3,13,55409
1349136366,5809,990.7199707031250000,40.2177581787109400,568.8234863281250000,4.2121157646179200,55.5722389221191400,54,99,101,78,82,15546,0,0,0,0,2147123510,2147780416,2147578340,2147567881,3352,3,13,52325
1349139966,5812,992.8400268554688000,40.7357711791992200,568.9553833007812000,4.2080187797546390,55.4945602416992200,55,98,100,77,82,15548,0,0,0,0,2147123657,2147775588,2147570587,2147570258,3463,3,13,58726
1349143566,5811,996.5300292968750000,40.2211608886718750,568.7274780273438000,4.2150969505310060,55.5663414001464840,55,99,101,77,82,15544,0,0,0,0,2147125494,2147770880,2147574153,2147564434,3356,3,13,54896
1349147166,5809,999.3400268554688000,39.8115997314453100,567.7631225585938000,4.2450518608093260,55.6166305541992200,54,99,101,79,82,15544,0,0,0,0,2147122742,2147778761,2147572361,2147571538,123,3,13,18153
1349150766,5810,995.1900024414062000,39.6327896118164060,567.9293823242188000,4.2398872375488280,55.6476097106933600,55,99,101,78,83,15543,0,0,0,0,2147123291,2147778825,2147573110,2147569929,148,3,13,15213
1349154366,5810,1001.0599975585938000,40.0520706176757800,567.7229003906250000,4.2463021278381350,55.5815010070800800,55,99,101,78,82,15542,0,0,0,0,2147125814,2147775076,2147570029,2147568950,187,3,13,63058
1349157966,5812,1001.7600097656250000,39.4284782409668000,567.2882080078125000,4.2597999572753910,55.6703300476074200,55,101,100,78,82,15522,0,0,0,0,2147121097,2147777764,2147573540,2147568201,60,3,13,58654
1349161566,5807,1003.0800170898438000,39.0668792724609400,567.3142700195312000,4.2589907646179200,55.7242813110351560,56,100,100,79,83,15518,0,0,0,0,2147124544,2147775515,2147572891,2147570148,128,3,13,42824
1349165166,5809,1002.8599853515625000,39.1791000366210940,567.2440185546875000,4.2611751556396480,55.7068290710449200,55,97,100,78,83,15526,0,0,0,0,2147121453,2147775424,2147574619,2147568640,265,3,13,31273
1349168766,5807,1003.8699951171875000,39.5949592590332000,567.6138916015625000,4.2496871948242190,55.6540489196777340,55,98,100,78,83,15524,0,0,0,0,2147122852,2147775213,2147574884,2147569161,109,3,13,57808
1349172366,5807,1009.4500122070312000,39.6855506896972660,567.1378173828125000,4.2644710540771480,55.6332283020019500,56,102,101,78,83,15527,0,0,0,0,2147126272,2147774921,2147572297,2147570916,220,3,13,45793
1349175966,5810,1007.0399780273438000,38.6041488647460940,566.8430786132812000,4.2736210823059080,55.7920303344726560,55,99,100,79,83,15527,0,0,0,0,2147122185,2147776466,2147574436,2147570925,310,3,13,61322
1349179566,5812,1008.7100219726562000,38.9581184387207000,566.0283203125000000,4.2989177703857420,55.7330589294433600,55,98,99,78,82,15527,0,0,0,0,2147126537,2147777033,2147574628,2147569069,274,3,13,2442
1349183166,5813,999.4299926757812000,38.4446792602539060,567.1682739257812000,4.2635211944580080,55.8168601989746100,56,102,100,77,81,15524,0,0,0,0,2147127707,2147778706,2147573778,2147574025,3488,3,13,52594
1349186766,5810,999.5999755859375000,39.3284606933593750,568.7139282226562000,4.2155208587646480,55.7015113830566400,55,98,100,78,84,15525,0,0,0,0,2147130486,2147776283,2147573622,2147568941,244,3,13,13054
1349190366,5808,998.5000000000000000,40.2124900817871100,568.9500732421875000,4.2081828117370605,55.5750694274902340,55,97,100,78,82,15522,0,0,0,0,2147125165,2147780397,2147575332,2147571602,3292,3,13,55043
1349193966,5810,994.3800048828125000,40.1593208312988300,568.9705200195312000,4.2075481414794920,55.5841407775878900,54,99,100,80,83,15522,0,0,0,0,2147123620,2147772946,2147575158,2147571949,3038,3,13,10970
1349197566,5809,1002.9299926757812000,40.2795791625976560,568.8590087890625000,4.2110118865966800,55.5630989074707000,55,99,101,78,83,15529,0,0,0,0,2147124900,2147774656,2147574345,2147569737,282,3,13,41293
1349201166,5808,1002.6099853515625000,39.8570098876953100,568.8383178710938000,4.2116570472717285,55.6232299804687500,56,99,101,78,83,15534,0,0,0,0,2147124708,2147776128,2147579291,2147569682,3593,3,13,15906
1349204766,5809,1004.2800292968750000,40.5447006225585940,567.8917846679688000,4.2410550117492680,55.5128097534179700,55,100,100,78,83,15529,0,0,0,0,2147126262,2147777792,2147573952,2147570166,1700,3,13,31589
1349205955,5810,1006.5200195312500000,40.0323905944824200,567.8753051757812000,4.2415680885314940,55.5836296081543000,56,98,101,78,82,15529,0,0,0,0,2147126464,2147776438,2147573421,2147569618,123,3,13,63838
